{"data":{"norad_id":46486,"intl_designator":"2020-068A","name":"GONETS-M 17","alt_names":[],"object_type":"PAYLOAD","status":"ACTIVE","operator":null,"country":"CIS","launch_date":"2020-09-28","launch_site_code":"PLMSC","launch_vehicle":null,"mission":null,"orbit_class":"UNKNOWN","rcs_meters":null,"size_class":null,"mass_kg":null,"dimensions":null,"purposes":[],"wikipedia_slug":null,"has_3d_model":false,"image_url":null,"decayed_at":null,"tle_current":{"epoch":"2026-05-25T04:29:18.787200Z","epoch_age_seconds":52115,"freshness":"FRESH","line1":"1 46486U 20068A   26145.18702300  .00000019  00000+0  62231-4 0  9990","line2":"2 46486  82.5004   1.8131 0023470  85.2359 275.1400 12.42872196256308","mean_motion":12.42872196,"eccentricity":0.002347,"inclination_deg":82.5004,"raan_deg":1.8131,"arg_perigee_deg":85.2359,"mean_anomaly_deg":275.14,"bstar":6.2231e-5,"rev_number":25630,"period_min":115.8606656931,"perigee_km":1475.9740784064,"apogee_km":1512.9280066781,"semimajor_km":7872.5880425422,"source":"CELESTRAK","updated_at":"2026-05-25T13:37:56.323549Z"}}}